Location: Killarney Provincial Park Observatory
(46.0124°N, 81.4000°W)
Time: 13:26:16
(UTC-04:00)

Iridium 22 - Visible Passes

Search period start: 25 May 2015 00:00
Search period end: 04 June 2015 00:00
Orbit: 776 x 779 km, 86.4° (Epoch: 25 May)

Date Brightness Start Highest point End Pass type
(mag) Time Alt. Az. Time Alt. Az. Time Alt. Az.
25 May 7.9 01:03:29 10° WSW 01:06:39 16° WNW 01:09:37 10° NW visible
25 May 6.1 22:48:54 22° SE 22:51:46 41° E 22:56:41 10° NNE visible
26 May 7.2 00:29:21 15° SW 00:32:43 26° WNW 00:37:03 10° NNW visible
26 May 6.8 22:15:11 13° SE 22:18:26 24° E 22:22:37 10° NNE visible
26 May 6.4 23:55:37 20° SW 23:58:56 45° W 00:03:56 10° N visible
27 May 7.4 21:42:44 10° ESE 21:45:12 14° ENE 21:47:56 10° NE visible
27 May 5.6 23:21:54 22° S 23:25:18 80° W 23:30:34 10° N visible
28 May 8.1 01:05:35 10° W 01:07:06 11° WNW 01:08:18 10° NW visible
28 May 5.7 22:48:08 19° SSE 22:51:49 59° E 22:56:57 10° N visible
29 May 7.7 00:29:17 10° WSW 00:33:03 19° WNW 00:36:40 10° NNW visible
29 May 6.4 22:14:21 13° SE 22:18:25 33° E 22:23:05 10° NNE visible
29 May 7.0 23:54:48 11° SW 23:59:10 32° WNW 00:03:50 10° NNW visible
30 May 7.0 21:41:33 10° ESE 21:45:07 20° E 21:48:51 10° NNE visible
30 May 6.1 23:21:01 14° SSW 23:25:27 57° W 23:30:36 10° N visible
31 May 5.5 22:47:12 13° S 22:51:53 83° E 22:57:08 10° N visible
01 Jun 8.0 00:30:41 10° W 00:33:27 14° WNW 00:35:57 10° NW visible
01 Jun 5.9 22:13:29 10° SSE 22:18:25 47° E 22:23:25 10° NNE visible
01 Jun 7.5 23:55:15 10° SW 23:59:28 24° WNW 00:03:35 10° NNW visible
02 Jun 6.6 21:40:48 10° SE 21:45:04 27° E 21:49:26 10° NNE visible
02 Jun 6.7 23:20:45 10° SSW 23:25:38 40° W 23:30:33 10° N visible
03 Jun 5.8 22:46:47 10° S 22:52:00 71° W 22:57:13 10° N visible
